Regional Weather Roundup
Issued by NWS Goodland, KS

Home | Current Version | Previous Version | Text Only | Print | Product List | Glossary Off
Versions: 1 2 3 4 5 6 7 8 9 10 11 12 13 14 15 16 17 18 19 20 21 22 23 24 25 26 27 28 29 30 31 32 33 34 35 36 37 38 39 40 41 42 43 44 45 46 47 48 49 50

000
ASUS43 KGLD 301459
RWRGLD

GOODLAND FORECAST AREA HOURLY WEATHER ROUNDUP
NATIONAL WEATHER SERVICE GOODLAND KS
900 AM MDT TUE AUG 30 2016

...OFFICIAL OBSERVATIONS...

CITY           SKY/WX    TMP DP  RH WIND       PRES   REMARKS
GOODLAND KS    CLOUDY    66  63  90 CALM      30.28R
HILL CITY KS   CLOUDY    69  67  93 CALM      30.24S
IMPERIAL NEB   PTSUNNY   67  63  87 SE3       30.27S
MCCOOK NEB     CLOUDY    67  66  97 E5        30.25R FOG
AKRON CO       SUNNY     68  52  56 W8        30.31S
BURLINGTON CO  CLOUDY    62  60  93 N3        30.31R FOG
LIMON CO       SUNNY     63  50  62 W3        30.36R
$$

...UNOFFICIAL OBSERVATIONS...

CITY           SKY/WX    TMP DP  RH WIND       PRES   REMARKS
COLBY KS       PTSUNNY   68  68 100 CALM      30.28R FOG
LENORA KS        N/A     68  32  26 MISG        N/A
NORTON KS        N/A     68  64  88 E5        30.24S FOG
SHARON SPRINGS   N/A     66  65  96 CALM        N/A
TRENTON NEB      N/A     67  32  27 MISG        N/A
YUMA CO          N/A     69  57  65 CALM        N/A
$$



USA.gov is the U.S. government's official web portal to all federal, state and local government web resources and services.